www.pogodaiklimat.ru

Погода и климат >> Архив погоды >> Мадагаскар >> Анцухихи


ПОГОДА в Анцухихи

  • Прогноз погоды в Анцухихи
  • Монитор погоды в Анцухихи

АРХИВ ПОГОДЫ в Анцухихи

Время (UTC), дата Ветер
(напр.,м/с)
 
Видим.   Явления Облачность Т
(С)
Тd
(С)
f
(%)
Тe
(С)
Тes
(С)
Комфортность P
(гПа)
Po
(гПа)
Тmin
(С)
Tmax
(С)
R
(мм)
R24
(мм)
S
(см)
03 15.08 ЮВ 2 30 км 4/4 600 м
[Cu Sc]
+18.8 +15.2 80 +20 +20 1019.7 1017.0
06 15.08 Ю 5 40 км 6/6 600 м
[Cu Sc]
+27.2 +16.6 52 +31 +33 душно 1020.2 1017.5 +20.7 +31.8
03 16.08 ЮВ 2 30 км 4/1 600 м
[Cu Sc Ci sp]
+20.2 +16.2 78 +24 +24 комфорт 1018.4 1015.7
06 16.08 Ю 5 40 км 1/1 600 м
[Cu Sc]
+27.0 +14.0 45 +29 +33 жарко 1019.2 1016.5 +22.4 +32.0
09 16.08 ЮЗ 7 40 км 1/1 600 м
[Cu Sc]
+31.2 +13.6 34 +32 +36 жарко 1017.6 1014.9
12 16.08 З 7 40 км 1/1 600 м
[Cu Sc]
+31.8 +10.4 27 +32 +33 жарко 1015.4 1012.7
15 16.08 Ю 6 30 км 3/3 600 м
[Cu Sc]
+25.4 +12.2 44 +27 +27 жарко 1016.2 1013.5 +31.8
03 17.08 Ю 3 30 км 1/1 600 м
[Cu Sc Ci sp]
+19.6 +14.6 73 +22 +22 комфорт 1017.4 1014.7
06 17.08 Ю 4 40 км 1/1 600 м
[Cu Sc Ci sp]
+26.4 +14.4 48 +29 +34 жарко 1018.2 1015.5 +20.6 +31.8
03 18.08 ЮВ 3 30 км 3/3 600 м
[Cu Sc]
+18.6 +14.2 76 +19 +19 1016.4 1013.7
06 18.08 Ю 4 40 км 1/1 600 м
[Cu Sc]
+24.6 +13.2 49 +27 +32 жарко 1017.4 1014.7 +20.4 +32.5
03 19.08 Ю 3 30 км 4/1 600 м
[Cu Sc Cs]
+18.2 +14.4 78 +19 +19 1017.2 1014.5
06 19.08 Ю 4 40 км 4/1 600 м
[Cu Sc Ci sp]
+25.6 +14.0 49 +28 +33 жарко 1018.2 1015.5 +20.3 +32.3
09 19.08 Ю 5 40 км 3/1 600 м
[Cu Sc Ci sp]
+30.6 +13.4 35 +32 +40 жарко 1016.8 1014.1
12 19.08 ЮЗ 6 40 км 3/1 600 м
[Cu Sc Ci sp]
+31.4 +12.8 32 +32 +35 жарко 1015.0 1012.3
15 19.08 Ю 5 30 км 9/9 600 м
[Cu Sc]
+25.6 +13.4 47 +28 +28 жарко 1016.0 1013.3 +31.4
03 20.08 ЮВ 3 30 км осадки на расстоянии 9/9 600 м
[Cu Sc]
+21.6 +17.4 77 +26 +26 душно 1017.3 1014.6
06 20.08 Ю 4 30 км осадки на расстоянии 9/9 600 м
[Cu Sc]
+26.8 +18.2 59 +31 +32 душно 1018.5 1015.8 +24.3 +31.4
09 20.08 ЮЗ 6 40 км 8/3 600 м
[Cu Sc Ac trans Ci sp]
+32.5 +16.2 38 +35 +38 душно 1017.0 1014.3
12 20.08 З 7 40 км 8/5 600 м
[Cu Sc Ac trans Ci sp]
+33.2 +15.6 35 +36 +36 очень
душно
1015.0 1012.3
15 20.08 Ю 4 30 км осадки на расстоянии 9/9 600 м
[Cu Sc]
+26.2 +16.4 55 +30 +30 душно 1015.8 1013.1 +33.2
03 21.08 ЮВ 2 30 км осадки на расстоянии 9/9 600 м
[Cu Sc]
+20.8 +17.0 79 +25 +25 комфорт 1017.0 1014.3
06 21.08 Ю 4 30 км осадки на расстоянии 9/9 600 м
[Cu Sc]
+27.2 +18.4 59 +32 +33 очень
душно
1018.1 1015.4 +23.4 +33.2
09 21.08 Ю 4 40 км 8/6 600 м
[Cu Sc Ac trans Ci sp]
+32.6 +17.2 40 +36 +40 очень
душно
1016.5 1013.8
12 21.08 ЮЗ 4 40 км 8/3 600 м
[Cu Sc Ac trans Ci sp]
+33.7 +16.4 36 +37 +39 очень
душно
1014.7 1012.0
15 21.08 Ю 3 30 км осадки на расстоянии 9/9 600 м
[Cu Sc]
+26.6 +17.6 58 +31 +31 душно 1015.6 1012.9 +33.7

 

Местоположение метеостанции Анцухихи (Мадагаскар): широта -14.88 долгота 47.98 высота над уровнем моря 23 м.

В архиве по умолчанию представлена погода в Анцухихи за последнюю неделю. Архивные данные за месяц целиком и за предыдущие месяцы, начиная с января 2011 года, Вы можете получить, выбрав интересующий диапазон дат из раскрывающегося списка и нажав кнопку "Ввод!".


*Определитесь, кто Вы:
робот инопланетянин человек

Внимание! Время в таблицах - всемирное. Для получения местного времени необходимо прибавить поправку, которая равна 3 ч.

Смотрите также архив погоды в соседних городах и на ближайших метеорологических станциях:

Погода в Аэропорту Fascene (Мадагаскар) (178 км)
Погода в Махадзанге (Мадагаскар) (195 км)
Погода в Анталахе (Мадагаскар) (244 км)
Погода в Самбаве (Мадагаскар) (245 км)
Погода в Амбоайтзилаозане (Мадагаскар) (311 км)
Погода на Нуси Бураха (Мадагаскар) (314 км)
Погода в Анциранане (Мадагаскар) (316 км)
Погода в Дзаудзи (Коморские Острова) (372 км)
Погода на Острове Глорьёз (Реюньон) (385 км)
Погода в Туамасине (Мадагаскар) (390 км)

Пояснения к столбцам:

Ветер - указаны скорость ветра в м/с - средняя за 10 мин, порывы в срок и между сроками (в фигурных скобках) и направление, откуда дует ветер: С - северный, СВ - северо-восточный, В - восточный, ЮВ - юго-восточный, Ю - южный, ЮЗ - юго-западный, З - западный, СЗ - северо-западный.
Видимость - горизонтальная дальность видимости в метрах или километрах. При видимости от 1 до 10 км при отсутствии осадков обычно наблюдается дымка, при ухудшении видимости до 1 км и менее - туман. В сухую погоду видимость может ухудшаться дымом, пылью или мглою.
Явления - указаны атмосферные явления, наблюдавшиеся в срок или в последний час перед сроком; фигурными скобками обозначены явления, наблюдавшиеся между сроками (за 1-3 часа до срока); квадратными скобками обозначены град или гололедные отложения с указанием их диаметра в мм.
Облачность - указаны через наклонную черту общая и нижняя облачность в баллах и высота нижней границы облаков в метрах; квадратными скобками обозначены формы облаков: Ci - перистые, Cs - перисто-слоистые, Cc - перисто-кучевые, Ac - высококучевые, As - высокослоистые, Sc - слоисто-кучевые, Ns - слоисто-дождевые, Cu - кучевые, Cb - кучево-дождевые. Подробнее классификацию облаков см. в Атласе облаков (PDF).
T - Температура воздуха - температура, измеренная на высоте 2 м над землей.
Td - Температура точки росы - температура, при понижении до которой содержащийся в воздухе водяной пар достигнет насыщения.
f - Относительная влажность воздуха - влажноcть воздуха, измеренная на высоте 2 м над землей.
Te - Эффективная температура - температура, которую ощущает одетый по сезону человек в тени. Характеристика душности погоды. При расчете учитывается влияние влажности воздуха и скорости ветра на теплоощущения человека.
Tes - Эффективная температура на солнце - температура, которую ощущает человек, с поправкой на солнечный нагрев. Характеристика знойности погоды. Зависит от высоты солнца над горизонтом, облачности и скорости ветра. Ночью, в пасмурную погоду, а также при ветре 12 м/с и более поправка равна нулю.
P - Атмосферное давление - приведенное к уровню моря атмосферное давление.
Po - Атмосферное давление - измеренное на уровне метеостанции атмосферное давление.
Tmin - Минимальная температура - минимум температуры воздуха на высоте 2 м над землей.
Tmax - Максимальная температура - максимум температуры воздуха на высоте 2 м над землей.
R - Количество осадков - Количество выпавших осадков за период времени, мм. При наведении курсора мыши на число - период времени, за который выпало указанное количество осадков.
R24 - Количество осадков - Количество выпавших осадков за 24 часа, мм.
S - Снежный покров - Высота снежного покрова, см. При наведении курсора мыши на число - состояние снежного покрова и степень покрытия местности в баллах.